Date,TemperatureHighF,TemperatureAvgF,TemperatureLowF,DewpointHighF,DewpointAvgF,DewpointLowF,HumidityHigh,HumidityAvg,HumidityLow,PressureMaxIn,PressureMinIn,WindSpeedMaxMPH,WindSpeedAvgMPH,GustSpeedMaxMPH,PrecipitationSumIn
2013-6-1,73.0,65.2,55.0,63.0,53.7,48.0,93,67,53,30.09,29.77,21,10,28,0.00
2013-6-2,73.0,61.4,50.0,54.0,49.6,46.0,93,68,40,30.17,30.01,14,7,18,0.00
2013-6-3,82.0,67.8,54.0,63.0,57.2,52.0,100,71,44,30.01,29.66,28,13,44,0.00
2013-6-4,82.0,75.3,64.0,70.0,64.1,52.0,94,69,36,29.95,29.64,24,9,38,0.00
2013-6-5,72.0,67.2,59.0,68.0,62.7,55.0,100,85,68,30.04,29.76,21,9,33,0.00
2013-6-6,77.0,65.5,54.0,59.0,55.0,52.0,100,71,43,30.05,29.98,14,7,20,0.00
2013-6-7,81.0,67.6,54.0,59.0,55.9,52.0,100,69,41,30.05,29.89,9,3,0,0.00
2013-6-8,84.0,71.0,63.0,64.0,59.5,57.0,93,69,42,29.91,29.72,24,13,35,0.00
2013-6-9,88.0,72.8,59.0,70.0,59.9,52.0,100,68,33,29.94,29.84,15,5,21,0.00
2013-6-10,99.0,80.9,63.0,70.0,64.4,61.0,93,61,36,29.90,29.78,16,8,21,0.00
2013-6-11,97.0,86.1,73.0,66.0,59.6,55.0,58,41,29,29.88,29.76,29,17,36,0.00
2013-6-12,99.0,85.4,73.0,73.0,68.0,64.0,83,58,32,29.99,29.79,20,10,29,0.00
2013-6-13,91.0,77.6,63.0,70.0,62.7,55.0,82,61,43,30.10,29.93,18,9,25,0.00
2013-6-14,99.0,84.3,72.0,72.0,65.5,55.0,88,58,23,29.99,29.84,23,11,31,0.00
2013-6-15,91.0,80.6,73.0,70.0,64.1,59.0,83,58,33,30.00,29.85,23,10,32,0.00
2013-6-16,93.0,79.9,66.0,72.0,64.7,61.0,88,62,34,30.03,29.88,28,7,36,0.00
2013-6-17,84.0,74.8,64.0,70.0,65.6,63.0,100,75,48,30.06,29.86,28,10,38,0.00
2013-6-18,90.0,77.2,63.0,70.0,62.1,52.0,100,65,29,30.08,29.93,23,4,31,0.00
2013-6-19,90.0,75.8,64.0,70.0,64.5,-99.9,93,71,43,30.02,29.89,18,10,24,0.00
2013-6-20,97.0,79.1,72.0,72.0,70.0,63.0,94,76,32,29.96,29.83,28,15,36,0.00
2013-6-22,95.0,89.3,82.0,66.0,63.8,61.0,58,43,32,29.92,29.80,28,20,37,0.00
2013-6-23,97.0,83.8,75.0,70.0,65.6,59.0,83,56,31,29.88,29.80,28,16,35,0.00
2013-6-24,93.0,82.4,73.0,70.0,66.4,64.0,83,60,38,29.91,29.76,29,16,38,0.00
2013-6-25,100.0,90.8,79.0,75.0,67.7,64.0,88,49,31,29.82,29.68,27,18,36,0.00
2013-6-26,102.0,87.4,73.0,75.0,71.1,64.0,94,62,29,29.93,29.79,13,6,20,0.00
2013-6-27,108.0,87.5,73.0,75.0,70.6,63.0,94,62,28,30.04,29.80,24,8,40,0.00
2013-6-28,99.0,82.1,70.0,72.0,66.5,59.0,100,64,30,30.10,29.95,16,8,21,0.00
2013-6-29,93.0,80.3,66.0,64.0,57.9,50.0,82,50,28,30.05,29.91,21,9,32,0.00
2013-6-30,84.0,72.4,59.0,61.0,54.2,48.0,87,56,30,30.10,29.98,18,10,24,0.00